When you browse on this site, cookies collect data to enhance your experience and personalize the content and advertising you see.
Visit our Privacy Policy to learn more. By continuing to use the site, you agree to this use of cookies and data.
  • In Portugal
  • List of Countries
  • For 7 days
  • Water Temperature
  • Satellite Maps
  • Weather Map
  • Weather Widgets
  • user-avatar
    Login

    Hourly Weather Ordino

    Today, 17 January, Thursday

    Time Temperature Precipitation Wind Pressure Humidity
    00:00 0°C° 0 mm 1 mps 629 mmHg 69%
    01:00 -1°C° 0 mm 1 mps 628 mmHg 70%
    02:00 -1°C° 0 mm 1 mps 628 mmHg 71%
    03:00 -1°C° 0 mm 1 mps 628 mmHg 72%
    04:00 -1°C° 0 mm 1 mps 628 mmHg 76%
    05:00 -1°C° 0 mm 1 mps 628 mmHg 80%
    06:00 -2°C° 0 mm 1 mps 627 mmHg 84%
    07:00 -1°C° 0 mm 1 mps 628 mmHg 82%
    08:00 0°C° 0 mm 1 mps 629 mmHg 80%
    09:00 -1°C° 0 mm 2 mps 629 mmHg 78%
    10:00 +1°C° 0.4 mm 2 mps 629 mmHg 78%
    11:00 +2°C° 0.4 mm 2 mps 630 mmHg 77%
    12:00 +2°C° 0.4 mm 2 mps 630 mmHg 76%
    13:00 +2°C° 0.3 mm 2 mps 630 mmHg 77%
    14:00 +1°C° 0.3 mm 2 mps 629 mmHg 79%
    15:00 +1°C° 0.3 mm 2 mps 629 mmHg 80%
    16:00 -1°C° 0.2 mm 2 mps 629 mmHg 83%
    17:00 -2°C° 0.2 mm 2 mps 629 mmHg 85%
    18:00 -3°C° 0.2 mm 2 mps 628 mmHg 88%
    19:00 -4°C° 0 mm 2 mps 628 mmHg 87%
    20:00 -5°C° 0 mm 2 mps 628 mmHg 87%
    21:00 -6°C° 0 mm 2 mps 629 mmHg 87%
    22:00 -6°C° 0 mm 2 mps 629 mmHg 87%
    23:00 -6°C° 0 mm 2 mps 629 mmHg 88%

    Tomorrow, 18 January, Friday

    Time Temperature Precipitation Wind Pressure Humidity
    00:00 -6°C° 0 mm 2 mps 629 mmHg 89%
    01:00 -6°C° 0 mm 2 mps 628 mmHg 88%
    02:00 -7°C° 0 mm 2 mps 628 mmHg 88%
    03:00 -7°C° 0 mm 2 mps 628 mmHg 87%
    04:00 -7°C° 0 mm 2 mps 628 mmHg 85%
    05:00 -7°C° 0 mm 2 mps 628 mmHg 83%
    06:00 -7°C° 0 mm 2 mps 627 mmHg 80%
    07:00 -6°C° 0 mm 2 mps 628 mmHg 78%
    08:00 -5°C° 0 mm 2 mps 628 mmHg 76%
    09:00 -2°C° 0 mm 1 mps 629 mmHg 74%
    10:00 -3°C° 0 mm 2 mps 629 mmHg 69%
    11:00 -1°C° 0 mm 2 mps 630 mmHg 64%
    12:00 +1°C° 0 mm 2 mps 630 mmHg 59%
    13:00 +1°C° 0 mm 2 mps 629 mmHg 61%
    14:00 -1°C° 0 mm 2 mps 629 mmHg 63%
    15:00 -1°C° 0 mm 2 mps 628 mmHg 65%
    16:00 0°C° 0 mm 1 mps 628 mmHg 71%
    17:00 -1°C° 0 mm 1 mps 628 mmHg 78%
    18:00 -2°C° 0 mm 1 mps 628 mmHg 84%
    19:00 -3°C° 0 mm 1 mps 628 mmHg 84%
    20:00 -3°C° 0 mm 1 mps 628 mmHg 84%
    21:00 -4°C° 0 mm 1 mps 628 mmHg 83%
    22:00 -4°C° 0 mm 1 mps 628 mmHg 83%
    23:00 -4°C° 0 mm 1 mps 627 mmHg 83%

    Day after tomorrow, 19 January, Saturday

    Time Temperature Precipitation Wind Pressure Humidity
    00:00 -4°C° 0 mm 1 mps 627 mmHg 83%
    01:00 -4°C° 0 mm 1 mps 627 mmHg 83%
    02:00 -4°C° 0 mm 1 mps 627 mmHg 83%
    03:00 -4°C° 0 mm 1 mps 627 mmHg 83%
    04:00 -4°C° 0 mm 1 mps 627 mmHg 82%
    05:00 -4°C° 0 mm 1 mps 626 mmHg 81%
    06:00 -4°C° 0 mm 1 mps 626 mmHg 80%
    07:00 -3°C° 0 mm 1 mps 627 mmHg 75%
    08:00 -1°C° 0 mm 1 mps 627 mmHg 70%
    09:00 0°C° 0 mm 1 mps 628 mmHg 65%
    10:00 +1°C° 0 mm 1 mps 628 mmHg 62%
    11:00 +3°C° 0 mm 1 mps 628 mmHg 58%
    12:00 +3°C° 0 mm 2 mps 628 mmHg 55%
    13:00 +2°C° 0 mm 2 mps 627 mmHg 59%
    14:00 +2°C° 0 mm 2 mps 627 mmHg 64%
    15:00 +1°C° 0 mm 2 mps 626 mmHg 68%
    16:00 -1°C° 0.1 mm 2 mps 625 mmHg 74%
    17:00 -2°C° 0.1 mm 2 mps 625 mmHg 81%
    18:00 -3°C° 0.1 mm 2 mps 624 mmHg 87%
    19:00 -3°C° 0.2 mm 2 mps 624 mmHg 88%
    20:00 -3°C° 0.2 mm 2 mps 624 mmHg 90%
    21:00 -2°C° 0.2 mm 2 mps 624 mmHg 91%
    22:00 0°C° 0.1 mm 1 mps 624 mmHg 92%
    23:00 0°C° 0.1 mm 1 mps 624 mmHg 92%

    20 January, Sunday

    Time Temperature Precipitation Wind Pressure Humidity
    00:00 -1°C° 0.1 mm 1 mps 624 mmHg 93%
    01:00 0°C° 0.1 mm 1 mps 624 mmHg 92%
    02:00 0°C° 0.1 mm 1 mps 624 mmHg 91%
    03:00 0°C° 0.1 mm 1 mps 624 mmHg 90%
    04:00 0°C° 0.1 mm 1 mps 624 mmHg 89%
    05:00 -2°C° 0.1 mm 2 mps 625 mmHg 89%
    06:00 -2°C° 0.1 mm 2 mps 625 mmHg 89%
    07:00 -1°C° 0.2 mm 2 mps 626 mmHg 88%
    08:00 -1°C° 0.2 mm 3 mps 627 mmHg 87%
    09:00 -1°C° 0.2 mm 3 mps 627 mmHg 86%
    10:00 0°C° 0.1 mm 3 mps 628 mmHg 83%
    11:00 0°C° 0.1 mm 3 mps 628 mmHg 80%
    12:00 0°C° 0.1 mm 3 mps 629 mmHg 78%
    13:00 0°C° 0.1 mm 3 mps 629 mmHg 78%
    14:00 0°C° 0.1 mm 3 mps 629 mmHg 78%
    15:00 -1°C° 0.1 mm 3 mps 629 mmHg 78%
    16:00 -2°C° 0.1 mm 3 mps 629 mmHg 81%
    17:00 -4°C° 0.1 mm 3 mps 629 mmHg 84%
    18:00 -5°C° 0.1 mm 3 mps 629 mmHg 87%
    19:00 -5°C° 0 mm 3 mps 629 mmHg 87%
    20:00 -5°C° 0 mm 3 mps 630 mmHg 87%
    21:00 -5°C° 0 mm 3 mps 630 mmHg 87%
    22:00 -5°C° 0 mm 3 mps 630 mmHg 87%
    23:00 -5°C° 0 mm 3 mps 631 mmHg 87%

    21 January, Monday

    Time Temperature Precipitation Wind Pressure Humidity
    00:00 -5°C° 0 mm 3 mps 631 mmHg 87%
    01:00 -5°C° 0.1 mm 3 mps 631 mmHg 87%
    02:00 -5°C° 0.1 mm 3 mps 631 mmHg 87%
    03:00 -4°C° 0.1 mm 3 mps 631 mmHg 87%
    04:00 -5°C° 0.1 mm 3 mps 631 mmHg 88%
    05:00 -5°C° 0.1 mm 3 mps 631 mmHg 88%
    06:00 -5°C° 0.1 mm 3 mps 631 mmHg 88%
    07:00 -4°C° 0.1 mm 3 mps 631 mmHg 86%
    08:00 -4°C° 0.1 mm 3 mps 632 mmHg 83%
    09:00 -2°C° 0.1 mm 3 mps 632 mmHg 80%
    10:00 -2°C° 0.1 mm 3 mps 633 mmHg 76%
    11:00 -1°C° 0.1 mm 3 mps 633 mmHg 73%
    12:00 -1°C° 0.1 mm 3 mps 633 mmHg 69%
    13:00 -1°C° 0 mm 3 mps 632 mmHg 69%
    14:00 -1°C° 0 mm 3 mps 632 mmHg 69%
    15:00 -1°C° 0 mm 3 mps 631 mmHg 70%
    16:00 -3°C° 0 mm 2 mps 631 mmHg 76%
    17:00 -5°C° 0 mm 2 mps 630 mmHg 83%
    18:00 -6°C° 0 mm 2 mps 630 mmHg 89%
    19:00 -7°C° 0 mm 2 mps 629 mmHg 88%
    20:00 -7°C° 0 mm 2 mps 629 mmHg 86%
    21:00 -8°C° 0 mm 2 mps 629 mmHg 85%
    22:00 -7°C° 0 mm 1 mps 628 mmHg 81%
    23:00 -7°C° 0 mm 1 mps 628 mmHg 77%

    22 January, Tuesday

    Time Temperature Precipitation Wind Pressure Humidity
    00:00 -7°C° 0 mm 1 mps 627 mmHg 73%
    01:00 -7°C° 0 mm 1 mps 626 mmHg 69%
    02:00 -6°C° 0 mm 1 mps 626 mmHg 64%
    03:00 -6°C° 0 mm 1 mps 625 mmHg 60%
    04:00 -6°C° 0 mm 2 mps 624 mmHg 65%
    05:00 -6°C° 0 mm 2 mps 623 mmHg 69%
    06:00 -5°C° 0 mm 2 mps 623 mmHg 74%
    07:00 -5°C° 0.1 mm 2 mps 622 mmHg 77%
    08:00 -2°C° 0.1 mm 1 mps 622 mmHg 79%
    09:00 -2°C° 0.1 mm 1 mps 622 mmHg 82%
    10:00 -2°C° 0.7 mm 1 mps 621 mmHg 84%
    11:00 -3°C° 0.7 mm 2 mps 621 mmHg 85%
    12:00 -3°C° 0.7 mm 2 mps 620 mmHg 86%
    13:00 -5°C° 0.6 mm 3 mps 620 mmHg 86%
    14:00 -5°C° 0.6 mm 3 mps 619 mmHg 85%
    15:00 -6°C° 0.6 mm 3 mps 618 mmHg 85%
    16:00 -7°C° 0.1 mm 3 mps 618 mmHg 85%
    17:00 -7°C° 0.1 mm 3 mps 617 mmHg 86%
    18:00 -7°C° 0.1 mm 2 mps 617 mmHg 87%
    19:00 -7°C° 0.1 mm 2 mps 617 mmHg 87%
    20:00 -9°C° 0.1 mm 3 mps 617 mmHg 87%
    21:00 -9°C° 0.1 mm 3 mps 617 mmHg 87%
    22:00 -9°C° 0.1 mm 3 mps 617 mmHg 87%
    23:00 -9°C° 0.1 mm 3 mps 616 mmHg 87%
    Show more